Date String (YYYY-MM-DD hh:mm:ss) UTC,Instrument flags,absolute air pressure of the measurement (hPa),sample flow rate (lpm),inlet stack bypass flow (lpm),air temperature of the measurement (°C),ambient temperature measured by the external sensor (°C),aerosol sample conditioner tube jacket temperature (°C),OPC LED temperature (°C),internal box temperature (°C),relative humidity of the measurement (%),span deviation,mass concentration of particles derived from Lorenz-Mie calculation of OPC scattering (μg/m³),mass concentration of particles derived from Lorenz-Mie calculation of OPC scattering (μg/m³),mass concentration of particles derived from Lorenz-Mie calculation of OPC scattering (μg/m³)
DateTimeUTC,F1_M11,P_M11,Q1_M11,Q2_M11,T1_M11,T2_M11,T3_M11,T4_M11,T5_M11,U1_M11,ZSPAN_M11,X0_M11,X2_M11,X1_M11
2023-08-02 11:00:00,SystemResetWarning,0833.1,4.99,000.00,029.6,028.2,000.0,038.0,031.2,29.8,0000.0,0004.46,0002.82,0002.23
2023-08-02 11:01:00,SystemResetWarning,0833.1,5.00,000.00,029.6,028.3,000.0,038.0,031.2,29.7,0000.0,0004.46,0002.77,0002.17
2023-08-02 11:02:00,SystemResetWarning,0833.1,5.01,000.00,029.6,028.3,000.0,038.0,031.2,29.7,0000.0,0004.36,0002.74,0002.12
2023-08-02 11:03:00,SystemResetWarning,0833.1,5.00,000.00,029.7,028.3,000.0,038.1,031.2,29.7,0000.0,0004.08,0002.66,0002.07
2023-08-02 11:04:00,SystemResetWarning,0833.4,5.00,000.00,029.7,028.4,000.0,038.1,031.3,29.6,0000.0,0003.99,0002.62,0002.02
2023-08-02 11:05:00,SystemResetWarning,0833.1,5.01,000.00,029.7,028.4,000.0,038.1,031.3,29.6,0000.0,0003.85,0002.51,0001.96
2023-08-02 11:06:00,SystemResetWarning,0833.0,4.99,000.00,029.7,028.5,000.0,038.1,031.3,29.4,0000.0,0003.73,0002.41,0001.89
2023-08-02 11:07:00,SystemResetWarning,0833.1,4.99,000.00,029.7,028.5,000.0,038.1,031.3,28.9,0000.0,0003.71,0002.37,0001.84
2023-08-02 11:08:00,SystemResetWarning,0833.2,4.99,000.00,029.8,028.5,000.0,038.1,031.4,29.1,0000.0,0003.75,0002.38,0001.82
2023-08-02 11:09:00,SystemResetWarning,0833.1,5.00,000.00,029.8,028.6,000.0,038.2,031.4,29.0,0000.0,0003.72,0002.37,0001.80
2023-08-02 11:10:00,SystemResetWarning,0833.2,5.01,000.00,029.8,028.6,000.0,038.2,031.4,28.7,0000.0,0003.62,0002.37,0001.82
2023-08-02 11:11:00,SystemResetWarning,0833.2,5.01,000.00,029.8,028.6,000.0,038.2,031.4,28.4,0000.0,0003.79,0002.47,0001.86
2023-08-02 11:12:00,SystemResetWarning,0833.2,5.00,000.00,029.8,028.6,000.0,038.2,031.4,28.1,0000.0,0004.12,0002.59,0001.91
2023-08-02 11:13:00,SystemResetWarning,0833.2,5.00,000.00,029.9,028.6,000.0,038.2,031.4,27.9,0000.0,0004.27,0002.67,0001.97
2023-08-02 11:14:00,SystemResetWarning,0833.2,4.99,000.00,029.9,028.7,000.0,038.3,031.4,27.9,0000.0,0004.53,0002.82,0002.03
2023-08-02 11:15:00,SystemResetWarning,0833.2,5.00,000.00,029.9,028.7,000.0,038.3,031.5,28.0,0000.0,0004.66,0002.90,0002.08
2023-08-02 11:16:00,SystemResetWarning,0833.2,4.99,000.00,029.9,028.7,000.0,038.3,031.5,27.8,0000.0,0004.87,0003.00,0002.14
2023-08-02 11:17:00,SystemResetWarning,0833.2,5.00,000.00,029.9,028.7,000.0,038.3,031.5,27.5,0000.0,0005.09,0003.08,0002.21
2023-08-02 11:18:00,SystemResetWarning,0833.2,5.00,000.00,030.0,028.8,000.0,038.3,031.5,27.5,0000.0,0005.12,0003.10,0002.27
2023-08-02 11:19:00,SystemResetWarning,0833.2,4.99,000.00,030.0,028.2,000.0,038.3,031.5,26.8,0000.0,0005.15,0003.12,0002.33
2023-08-02 11:20:00,SystemResetWarning,0833.1,5.01,000.00,029.9,026.3,000.0,038.2,031.3,27.3,0000.0,0005.46,0003.17,0002.36
2023-08-02 11:21:00,SystemResetWarning,0833.2,5.00,000.00,029.8,025.5,000.0,038.1,031.0,27.3,0000.0,0005.55,0003.19,0002.36
2023-08-02 11:22:00,SystemResetWarning,0833.2,5.01,000.00,029.7,025.5,000.0,038.1,030.7,27.7,0000.0,0006.41,0003.16,0002.35
2023-08-02 11:23:00,SystemResetWarning,0833.2,5.01,000.00,029.6,025.9,000.0,038.1,030.7,28.5,0000.0,0006.45,0003.15,0002.35
2023-08-02 11:24:00,SystemResetWarning,0833.1,5.00,000.00,029.5,026.3,000.0,038.1,030.8,28.3,0000.0,0006.36,0003.13,0002.33
2023-08-02 11:25:00,SystemResetWarning,0833.2,4.99,000.00,029.5,026.6,000.0,038.1,030.9,27.9,0000.0,0006.98,0003.05,0002.31
2023-08-02 11:26:00,SystemResetWarning,0833.2,5.00,000.00,029.5,027.0,000.0,038.1,030.9,27.8,0000.0,0007.08,0003.05,0002.33
2023-08-02 11:27:00,SystemResetWarning,0833.2,5.01,000.00,029.5,027.3,000.0,038.1,031.0,27.9,0000.0,0007.14,0003.10,0002.36
2023-08-02 11:28:00,SystemResetWarning,0833.2,5.00,000.00,029.5,027.5,000.0,038.1,031.0,27.9,0000.0,0007.22,0003.14,0002.40
2023-08-02 11:29:00,SystemResetWarning,0833.3,5.00,000.00,029.5,027.7,000.0,038.1,031.1,28.1,0000.0,0007.35,0003.18,0002.44
2023-08-02 11:30:00,SystemResetWarning,0833.2,5.00,000.00,029.6,027.8,000.0,038.1,031.1,28.0,0000.0,0007.34,0003.18,0002.46
2023-08-02 11:31:00,SystemResetWarning,0833.3,5.00,000.00,029.6,028.0,000.0,038.1,031.1,27.9,0000.0,0007.50,0003.15,0002.47
2023-08-02 11:32:00,SystemResetWarning,0833.2,4.98,000.00,029.6,028.1,000.0,038.1,031.1,27.6,0000.0,0007.53,0003.16,0002.50
2023-08-02 11:33:00,SystemResetWarning,0833.2,5.01,000.00,029.6,028.2,000.0,038.1,031.2,27.2,0000.0,0006.66,0003.19,0002.53
2023-08-02 11:34:00,SystemResetWarning,0833.2,5.00,000.00,029.6,028.2,000.0,038.1,031.2,27.2,0000.0,0006.45,0003.17,0002.55
2023-08-02 11:35:00,SystemResetWarning,0833.3,5.00,000.00,029.7,028.3,000.0,038.1,031.2,27.1,0000.0,0006.48,0003.19,0002.55
2023-08-02 11:36:00,SystemResetWarning,0833.3,5.01,000.00,029.7,028.4,000.0,038.1,031.3,27.3,0000.0,0005.73,0003.20,0002.53
2023-08-02 11:37:00,SystemResetWarning,0833.3,4.99,000.00,029.7,028.4,000.0,038.1,031.3,27.5,0000.0,0005.40,0003.16,0002.52
2023-08-02 11:38:00,SystemResetWarning,0833.3,4.99,000.00,029.7,028.4,000.0,038.1,031.3,27.7,0000.0,0005.16,0003.10,0002.47
2023-08-02 11:39:00,SystemResetWarning,0833.3,4.99,000.00,029.7,028.5,000.0,038.1,031.3,27.8,0000.0,0005.13,0003.04,0002.42
2023-08-02 11:40:00,SystemResetWarning,0833.3,5.00,000.00,029.8,028.5,000.0,038.2,031.3,27.8,0000.0,0005.08,0003.03,0002.40
2023-08-02 11:41:00,SystemResetWarning,0833.3,5.01,000.00,029.8,028.5,000.0,038.2,031.4,27.9,0000.0,0005.19,0003.06,0002.39
2023-08-02 11:42:00,SystemResetWarning,0833.4,5.01,000.00,029.8,028.6,000.0,038.2,031.4,27.9,0000.0,0004.80,0003.08,0002.39
2023-08-02 11:43:00,SystemResetWarning,0833.4,5.01,000.00,029.8,028.6,000.0,038.2,031.4,28.0,0000.0,0004.65,0003.10,0002.39
2023-08-02 11:44:00,SystemResetWarning,0833.4,4.99,000.00,029.8,028.6,000.0,038.2,031.4,28.0,0000.0,0004.75,0003.11,0002.37
2023-08-02 11:45:00,SystemResetWarning,0833.4,4.99,000.00,029.9,028.7,000.0,038.3,031.5,27.7,0000.0,0004.80,0003.11,0002.33
2023-08-02 11:46:00,SystemResetWarning,0833.4,4.99,000.00,029.9,028.7,000.0,038.3,031.5,27.2,0000.0,0004.81,0003.09,0002.32
2023-08-02 11:47:00,SystemResetWarning,0833.4,5.01,000.00,029.9,028.7,000.0,038.3,031.5,26.9,0000.0,0004.70,0003.04,0002.33
2023-08-02 11:48:00,SystemResetWarning,0833.4,5.01,000.00,029.9,028.7,000.0,038.3,031.5,26.7,0000.0,0004.83,0003.07,0002.32
2023-08-02 11:49:00,SystemResetWarning,0833.4,5.01,000.00,030.0,028.8,000.0,038.3,031.5,26.5,0000.0,0004.79,0003.05,0002.31
2023-08-02 11:50:00,SystemResetWarning,0833.4,5.00,000.00,030.0,028.1,000.0,038.3,031.5,26.4,0000.0,0004.70,0003.04,0002.31
2023-08-02 11:51:00,SystemResetWarning,0833.4,4.98,000.00,029.9,026.3,000.0,038.2,031.3,26.9,0000.0,0004.47,0002.94,0002.29
2023-08-02 11:52:00,SystemResetWarning,0833.4,5.04,000.00,029.8,025.5,000.0,038.1,031.0,26.9,0000.0,0004.16,0002.82,0002.25
2023-08-02 11:53:00,SystemResetWarning,0833.3,4.99,000.00,029.7,025.6,000.0,038.1,030.8,27.1,0000.0,0003.96,0002.71,0002.20
2023-08-02 11:54:00,SystemResetWarning,0833.4,4.99,000.00,029.6,025.9,000.0,038.1,030.8,27.3,0000.0,0003.82,0002.60,0002.14
2023-08-02 11:55:00,SystemResetWarning,0833.4,5.00,000.00,029.6,026.3,000.0,038.1,030.8,27.0,0000.0,0003.64,0002.52,0002.10
2023-08-02 11:56:00,SystemResetWarning,0833.5,5.01,000.00,029.5,026.7,000.0,038.1,030.9,26.5,0000.0,0003.54,0002.48,0002.09
2023-08-02 11:57:00,SystemResetWarning,0833.4,5.01,000.00,029.5,027.0,000.0,038.1,031.0,26.6,0000.0,0003.46,0002.45,0002.08
2023-08-02 11:58:00,SystemResetWarning,0833.5,5.00,000.00,029.5,027.3,000.0,038.1,031.0,26.8,0000.0,0003.48,0002.46,0002.06
2023-08-02 11:59:00,SystemResetWarning,0833.5,5.00,000.00,029.6,027.6,000.0,038.1,031.0,26.8,0000.0,0003.60,0002.47,0002.06
